Regional Weather Roundup
Issued by NWS Little Rock, AR

Home | Current Version | Previous Version | Text Only | Print | Product List | Glossary On
Versions: 1 2 3 4 5 6 7 8 9 10 11 12 13 14 15 16 17 18 19 20 21 22 23 24 25 26 27 28 29 30 31 32 33 34 35 36 37 38 39 40 41 42 43 44 45 46 47 48 49 50
000
ASUS44 KLZK 191605
RWRLZK

WEATHER ROUNDUP FOR ARKANSAS
NATIONAL WEATHER SERVICE LITTLE ROCK AR
1100 AM CDT FRI SEP 19 2014

NOTE: "FAIR" INDICATES FEW OR NO CLOUDS BELOW 12,000 FEET WITH NO
SIGNIFICANT WEATHER AND/OR OBSTRUCTIONS TO VISIBILITY.

ARZ001-003-010-029-191700-
NORTHWEST ARKANSAS

CITY           SKY/WX    TMP DP  RH WIND       PRES   REMARKS
FAYETTEVILLE   PTSUNNY   74  67  78 CALM      30.06R
FORT SMITH     CLOUDY    74  66  76 E7        30.04R
HARRISON       PTSUNNY   69  63  81 VRB6      30.09R
BENTONVILLE    CLOUDY    72  64  78 S5        30.07S
ROGERS         MOSUNNY   71  64  78 CALM      30.08R
SILOAM SPGS    CLOUDY    73  64  73 S5        30.07S
HIGHFILL       CLOUDY    72  66  81 SE3       30.06S
SPRINGDALE     MOSUNNY   70  64  83 E7        30.08S
$$

ARZ004-005-016-191700-
NORTH CENTRAL ARKANSAS

CITY           SKY/WX    TMP DP  RH WIND       PRES   REMARKS
BATESVILLE     SUNNY     73  64  73 E5        30.06S
FLIPPIN        MOSUNNY   72  61  68 SE7       30.08R
MTN HOME       SUNNY     72  63  73 SE5       30.07R
$$

ARZ040-041-191700-
WEST CENTRAL ARKANSAS

CITY           SKY/WX    TMP DP  RH WIND       PRES   REMARKS
MENA           CLOUDY    72  68  88 CALM      30.06R
MOUNT IDA      CLOUDY    75  67  76 CALM      30.02R
$$

ARZ009-017-025-026-028-191700-
NORTHEAST ARKANSAS

CITY           SKY/WX    TMP DP  RH WIND       PRES   REMARKS
CORNING          N/A     72  63  73 NE6       30.08S
JONESBORO      SUNNY     75  62  64 NE7       30.06R
NEWPORT        SUNNY     75  65  71 NE7       30.07S
WALNUT RIDGE   SUNNY     72  63  73 NE6       30.06F
BLYTHEVILLE    SUNNY     77  65  66 E6        30.06S
$$

ARZ022-023-033-042-044-191700-
CENTRAL ARKANSAS

CITY           SKY/WX    TMP DP  RH WIND       PRES   REMARKS
LITTLE ROCK    MOSUNNY   76  66  71 CALM      30.04S
N LITTLE ROCK  MOSUNNY   78  70  74 E5        30.04S
JACKSONVILLE   SUNNY     77  67  71 NE5       30.03F
SEARCY         SUNNY     79  67  66 E7        30.05S
HOT SPRINGS    MOSUNNY   77  67  71 MISG      30.04R
RUSSELLVILLE   PTSUNNY   75  66  73 VRB3      30.05S
CLINTON        FAIR      75  66  73 S3        30.06S
$$

ARZ036-191700-
EAST ARKANSAS

CITY           SKY/WX    TMP DP  RH WIND       PRES   REMARKS
WEST MEMPHIS   SUNNY     77  67  71 VRB3      30.04R
$$

ARZ050-053-066-070-073-191700-
SOUTHWEST ARKANSAS

CITY           SKY/WX    TMP DP  RH WIND       PRES   REMARKS
ARKADELPHIA    FAIR      78  70  76 VRB5      30.03S
CAMDEN         CLOUDY    73  66  78 NE3       30.03R
TEXARKANA      CLOUDY    70  69  97 NE6       30.02R FOG
EL DORADO      CLOUDY    72  68  87 E6        30.03R
DE QUEEN       CLOUDY    73  68  84 E9        30.01R HAZE
$$

ARZ056-057-069-191700-
SOUTHEAST ARKANSAS

CITY           SKY/WX    TMP DP  RH WIND       PRES   REMARKS
PINE BLUFF     MOSUNNY   77  68  73 NE6       30.03S
STUTTGART      SUNNY     75  68  78 E6        30.04S
MONTICELLO     MOSUNNY   78  67  68 VRB6      30.03S

$$




USA.gov is the U.S. government's official web portal to all federal, state and local government web resources and services.